Location: C�an Torras
(41.5052°N, 1.9280°E)
Time: 02:08:22
(UTC+00:00)

Cosmos 1939 Rocket - Pass Details

Date: 20 January 2021
Orbit: 531 x 584 km, 97.4° (Epoch: 08 March)

Event Time Altitude Azimuth Distance (km) Brightness Sun altitude
Rises 17:37:29 0° 159° (SSE) 2,793 6.4 -8.4°
Reaches altitude 10° 17:39:39 10° 156° (SSE) 1,896 5.5 -8.8°
Maximum altitude 17:43:43 63° 75° (ENE) 651 2.9 -9.5°
Drops below altitude 10° 17:47:47 10° 355° (N) 1,892 5.4 -10.3°
Sets 17:49:56 0° 352° (N) 2,788 6.3 -10.6°
